User: anonymous   Login
Location: NJAA Observatory
(40.6819°N, 74.8979°W)
Time: 13:07:55
(UTC-05:00)
Language:

Landsat 5 - Orbit

View from above orbital plane
View from above orbital plane
View from above satellite
View from above satellite

Ground track
Ground track

The orbit data is extracted from the following two-line orbital elements,

1 14780U 84021A   17056.47670471  .00000494  00000-0  51844-4 0  9993
2 14780  98.0299 166.3500 0091335 176.3031 183.8882 14.91403731759228
Epoch (UTC): 25 February 2017 11:26:27
Eccentricity: 0.0091335
inclination: 98.0299°
perigee height: 530 km
apogee height: 657 km
right ascension of ascending node: 166.3500°
argument of perigee: 176.3031°
revolutions per day: 14.91403731
mean anomaly at epoch: 183.8882°
orbit number at epoch: 75922

The dashed part of the orbit path shows where the satellite is in the earth's shadow,  

DLR